Regional Weather Roundup
Issued by NWS Midland/Odessa, TX

Skip options and go directly to product.
Home | Oldest Version | Previous Version | Current Version | All | Text Only | Save Text | Print | Product List | Glossary Off

Skip product version selection by date and time.   

563
ASUS44 KMAF 250110
RWRMAF
MIDLAND AREA WEATHER ROUNDUP
NATIONAL WEATHER SERVICE MIDLAND TX
800 PM CDT FRI APR 24 2015

...IN SOUTHWEST TEXAS AND SOUTHEAST NEW MEXICO...

CITY           SKY/WX    TMP DP  RH WIND       PRES   REMARKS
ALPINE         CLEAR     70  32  24 W10       29.95S
ANDREWS        FAIR      74  24  15 W18G26    29.80S
ARTESIA        CLEAR     72  25  17 SW23G31   29.81R
BIG SPRING     PTCLDY    79  24  13 W23G29    29.78S
CARLSBAD       CLEAR     74  22  14 W25       29.81R
DRYDEN           N/A     85  47  26 W3        29.73F
FORT STOCKTON  CLEAR     77  34  21 W10       29.80F
GUAD PASS      CLEAR     62  20  19 W43G51    29.90R
HOBBS          CLEAR     70  25  18 SW24G30   29.82R
MARFA          CLEAR     70  30  23 W12       29.94R
MIDLAND AIRPK  CLEAR     76  24  14 W20G25    29.79S
MIDLAND INTL   CLEAR     76  26  15 W24G30    29.79R
ODESSA         CLEAR     76  20  12 W24G32    29.80S
PECOS          CLEAR     77  27  15 W13G22    29.79S
PRESIDIO       FAIR      83  29  14 NW13      29.77S
SEMINOLE       CLEAR     73  22  15 W21G26    29.80S
SNYDER         CLOUDY    74  37  25 SW17      29.74R
WINK           CLEAR     77  17  10 W20G28    29.79R
$$
...OTHER STATIONS IN TEXAS...

CITY           SKY/WX    TMP DP  RH WIND       PRES   REMARKS
ABILENE        MOCLDY    72  64  76 S9        29.70S
AMARILLO       PTCLDY    69  25  19 SW30G40   29.63R
AUSTIN         CLOUDY    78  73  84 S6        29.70R
BROWNSVILLE    CLEAR     80  76  87 SE16      29.68F FOG
CORPUS CHRISTI MOCLDY    79  75  87 SE15      29.68F FOG
DALLAS FTW     LGT RAIN  63  61  93 S12       29.62R
DEL RIO        PTCLDY    80  71  74 E5        29.70S
EL PASO        PTCLDY    71  24  17 W18G30    29.89R
HOUSTON INT    MOCLDY    80  72  76 S5        29.72S
LUBBOCK        PTCLDY    72  29  20 W28G39    29.72R
SAN ANGELO     MOCLDY    76  56  49 W6        29.73S
SAN ANTONIO    CLOUDY    80  73  79 S7        29.72R
WACO           CLOUDY    78  73  84 SW6       29.66S
WICHITA FALLS  NOT AVBL
$$
...OTHER LOCATIONS IN NEW MEXICO...

CITY           SKY/WX    TMP DP  RH WIND       PRES   REMARKS
ALAMAGORDO     PTCLDY    68  23  18 W18       29.88R
ALBUQUERQUE    MOCLDY    56  38  50 SE7       29.87S
CANNON AFB     CLEAR     65  28  25 W25G32    29.75R
CLOVIS         CLEAR     64  25  22 W31G40    29.74R
HOLLOMAN AFB   CLEAR     69  26  19 SW24G30   29.85R
ROSWELL        CLEAR     72  27  18 W14       29.78R
RUIDOSO        MOCLDY    54  23  30 SW15      29.94R
SANTA FE       PTCLDY    56  17  21 W21G31    29.86R
TRUTH OR CONSE CLEAR     66  25  21 W20G26    29.88R
TUCUMCARI      PTCLDY    69  15  12 W31G45    29.67R
$$

USA.gov is the U.S. government's official web portal to all federal, state and local government web resources and services.